Time,TemperatureF,DewpointF,PressureIn,WindDirection,WindDirectionDegrees,WindSpeedMPH,WindSpeedGustMPH,Humidity,HourlyPrecipIn,Conditions,Clouds,dailyrainin,SolarRadiationWatts/m^2,SoftwareType,DateUTC
2014-07-29 00:02:00,67.3,56.3,30.08,WSW,253,0.0,3.0,68,0.00,,,0.00,0.0,meteohub,2014-07-29 07:02:00,
2014-07-29 00:07:00,67.3,56.8,30.08,WSW,253,0.0,1.0,69,0.00,,,0.00,0.0,meteohub,2014-07-29 07:07:00,
2014-07-29 00:12:00,66.9,56.8,30.08,WSW,253,0.0,1.0,70,0.00,,,0.00,0.0,meteohub,2014-07-29 07:12:00,
2014-07-29 00:17:00,66.4,58.3,30.08,WSW,253,2.0,2.0,75,0.00,,,0.00,0.0,meteohub,2014-07-29 07:17:00,
2014-07-29 00:22:00,66.0,57.2,30.08,WSW,253,2.0,3.0,73,0.00,,,0.00,0.0,meteohub,2014-07-29 07:22:00,
2014-07-29 00:27:00,65.7,57.9,30.08,WSW,253,0.0,3.0,76,0.00,,,0.00,0.0,meteohub,2014-07-29 07:27:00,
2014-07-29 00:32:00,65.7,56.8,30.09,WSW,253,0.0,3.0,73,0.00,,,0.00,0.0,meteohub,2014-07-29 07:32:00,
2014-07-29 00:37:00,65.5,57.0,30.09,WSW,253,0.0,2.0,74,0.00,,,0.00,0.0,meteohub,2014-07-29 07:37:00,
2014-07-29 00:42:00,65.1,56.7,30.09,WSW,253,0.0,1.0,74,0.00,,,0.00,0.0,meteohub,2014-07-29 07:42:00,
2014-07-29 00:47:00,65.1,56.7,30.09,WSW,253,0.0,1.0,74,0.00,,,0.00,0.0,meteohub,2014-07-29 07:47:00,
2014-07-29 00:52:00,65.1,56.7,30.08,WSW,253,0.0,0.0,74,0.00,,,0.00,0.0,meteohub,2014-07-29 07:52:00,
2014-07-29 00:57:00,64.9,56.5,30.09,WSW,253,0.0,0.0,74,0.00,,,0.00,0.0,meteohub,2014-07-29 07:57:00,
2014-07-29 01:02:00,64.8,56.7,30.09,WSW,253,0.0,0.0,75,0.00,,,0.00,0.0,meteohub,2014-07-29 08:02:00,
2014-07-29 01:07:00,64.2,56.5,30.09,WSW,253,0.0,0.0,76,0.00,,,0.00,0.0,meteohub,2014-07-29 08:07:00,
2014-07-29 01:12:00,64.2,56.8,30.09,WSW,253,0.0,0.0,77,0.00,,,0.00,0.0,meteohub,2014-07-29 08:12:00,
2014-07-29 01:17:00,64.0,56.7,30.09,WSW,253,0.0,0.0,77,0.00,,,0.00,0.0,meteohub,2014-07-29 08:17:00,
2014-07-29 01:22:00,64.0,56.3,30.09,WSW,253,0.0,0.0,76,0.00,,,0.00,0.0,meteohub,2014-07-29 08:22:00,
2014-07-29 01:27:00,63.9,56.5,30.08,WSW,253,0.0,0.0,77,0.00,,,0.00,0.0,meteohub,2014-07-29 08:27:00,
2014-07-29 01:32:00,63.7,57.0,30.09,WSW,253,0.0,2.0,79,0.00,,,0.00,0.0,meteohub,2014-07-29 08:32:00,
2014-07-29 01:37:00,63.5,56.5,30.09,WSW,252,1.0,2.0,78,0.00,,,0.00,0.0,meteohub,2014-07-29 08:37:00,
2014-07-29 01:42:00,63.5,56.8,30.09,WSW,253,0.0,2.0,79,0.00,,,0.00,0.0,meteohub,2014-07-29 08:42:00,
2014-07-29 01:47:00,63.5,56.1,30.09,WSW,253,0.0,2.0,77,0.00,,,0.00,0.0,meteohub,2014-07-29 08:47:00,
2014-07-29 01:52:00,63.3,56.7,30.09,WSW,253,0.0,2.0,79,0.00,,,0.00,0.0,meteohub,2014-07-29 08:52:00,
2014-07-29 01:57:00,63.1,55.8,30.09,WSW,253,2.0,2.0,77,0.00,,,0.00,0.0,meteohub,2014-07-29 08:57:00,
2014-07-29 02:02:00,63.0,56.7,30.09,WSW,253,1.0,2.0,80,0.00,,,0.00,0.0,meteohub,2014-07-29 09:02:00,
2014-07-29 02:07:00,63.0,56.7,30.09,WSW,253,2.0,3.0,80,0.00,,,0.00,0.0,meteohub,2014-07-29 09:07:00,
2014-07-29 02:12:00,62.8,55.8,30.09,WSW,253,3.0,3.0,78,0.00,,,0.00,0.0,meteohub,2014-07-29 09:12:00,
2014-07-29 02:17:00,63.0,55.6,30.09,WSW,253,3.0,3.0,77,0.00,,,0.00,0.0,meteohub,2014-07-29 09:17:00,
2014-07-29 02:22:00,63.1,55.0,30.09,NNW,329,5.0,5.0,75,0.00,,,0.00,0.0,meteohub,2014-07-29 09:22:00,
2014-07-29 02:27:00,63.5,55.4,30.09,North,9,6.0,7.0,75,0.00,,,0.00,0.0,meteohub,2014-07-29 09:27:00,
2014-07-29 02:32:00,63.1,55.8,30.09,NNE,22,5.0,7.0,77,0.00,,,0.00,0.0,meteohub,2014-07-29 09:32:00,
2014-07-29 02:37:00,63.0,55.2,30.09,NNW,340,5.0,7.0,76,0.00,,,0.00,0.0,meteohub,2014-07-29 09:37:00,
2014-07-29 02:42:00,63.1,54.7,30.09,NW,325,5.0,7.0,74,0.00,,,0.00,0.0,meteohub,2014-07-29 09:42:00,
2014-07-29 02:47:00,63.3,54.9,30.09,NNW,343,6.0,7.0,74,0.00,,,0.00,0.0,meteohub,2014-07-29 09:47:00,
2014-07-29 02:52:00,63.5,54.3,30.09,North,355,6.0,7.0,72,0.00,,,0.00,0.0,meteohub,2014-07-29 09:52:00,
2014-07-29 02:57:00,63.5,54.3,30.09,NNW,346,7.0,7.0,72,0.00,,,0.00,0.0,meteohub,2014-07-29 09:57:00,
2014-07-29 03:02:00,63.3,54.5,30.09,NNW,342,7.0,8.0,73,0.00,,,0.00,0.0,meteohub,2014-07-29 10:02:00,
2014-07-29 03:07:00,63.3,54.5,30.09,North,355,6.0,9.0,73,0.00,,,0.00,0.0,meteohub,2014-07-29 10:07:00,
2014-07-29 03:12:00,63.1,54.3,30.09,North,5,6.0,9.0,73,0.00,,,0.00,0.0,meteohub,2014-07-29 10:12:00,
2014-07-29 03:17:00,63.1,54.0,30.09,NNE,25,6.0,9.0,72,0.00,,,0.00,0.0,meteohub,2014-07-29 10:17:00,
2014-07-29 03:22:00,63.0,54.5,30.09,NNE,17,6.0,9.0,74,0.00,,,0.00,0.0,meteohub,2014-07-29 10:22:00,
2014-07-29 03:27:00,62.4,55.0,30.09,North,5,6.0,9.0,77,0.00,,,0.00,0.0,meteohub,2014-07-29 10:27:00,
2014-07-29 03:32:00,62.2,54.9,30.09,North,0,6.0,8.0,77,0.00,,,0.00,0.0,meteohub,2014-07-29 10:32:00,
2014-07-29 03:37:00,62.2,54.1,30.09,North,355,7.0,8.0,75,0.00,,,0.00,0.0,meteohub,2014-07-29 10:37:00,
2014-07-29 03:42:00,62.2,54.1,30.09,North,9,7.0,8.0,75,0.00,,,0.00,0.0,meteohub,2014-07-29 10:42:00,
2014-07-29 03:47:00,62.2,55.2,30.09,NNE,29,6.0,8.0,78,0.00,,,0.00,0.0,meteohub,2014-07-29 10:47:00,
2014-07-29 03:52:00,62.1,54.0,30.09,North,355,8.0,8.0,75,0.00,,,0.00,0.0,meteohub,2014-07-29 10:52:00,
2014-07-29 03:57:00,62.2,53.8,30.09,North,355,8.0,10.0,74,0.00,,,0.00,0.0,meteohub,2014-07-29 10:57:00,
2014-07-29 04:02:00,62.8,54.3,30.10,North,9,8.0,10.0,74,0.00,,,0.00,0.0,meteohub,2014-07-29 11:02:00,
2014-07-29 04:07:00,62.4,54.3,30.10,North,350,9.0,10.0,75,0.00,,,0.00,0.0,meteohub,2014-07-29 11:07:00,
2014-07-29 04:12:00,62.1,54.0,30.10,North,0,9.0,10.0,75,0.00,,,0.00,0.0,meteohub,2014-07-29 11:12:00,
2014-07-29 04:17:00,61.7,54.5,30.10,North,0,9.0,10.0,77,0.00,,,0.00,0.0,meteohub,2014-07-29 11:17:00,
2014-07-29 04:22:00,61.5,54.3,30.10,NNW,342,9.0,10.0,77,0.00,,,0.00,0.0,meteohub,2014-07-29 11:22:00,
2014-07-29 04:27:00,61.3,54.1,30.10,North,355,9.0,10.0,77,0.00,,,0.00,0.0,meteohub,2014-07-29 11:27:00,
2014-07-29 04:32:00,61.3,54.5,30.10,North,350,9.0,11.0,78,0.00,,,0.00,0.0,meteohub,2014-07-29 11:32:00,
2014-07-29 04:37:00,61.2,54.7,30.10,NNW,342,9.0,11.0,79,0.00,,,0.00,0.0,meteohub,2014-07-29 11:37:00,
2014-07-29 04:42:00,61.2,54.0,30.10,NNW,342,9.0,11.0,77,0.00,,,0.00,0.0,meteohub,2014-07-29 11:42:00,
2014-07-29 04:47:00,61.2,54.3,30.10,North,355,9.0,12.0,78,0.00,,,0.00,0.0,meteohub,2014-07-29 11:47:00,
2014-07-29 04:52:00,61.2,54.3,30.11,NNW,342,9.0,12.0,78,0.00,,,0.00,0.0,meteohub,2014-07-29 11:52:00,
2014-07-29 04:57:00,61.0,54.1,30.11,NNW,344,8.0,12.0,78,0.00,,,0.00,0.0,meteohub,2014-07-29 11:57:00,
2014-07-29 05:02:00,60.8,54.0,30.11,North,355,8.0,12.0,78,0.00,,,0.00,0.0,meteohub,2014-07-29 12:02:00,
2014-07-29 05:07:00,60.6,54.1,30.11,North,349,10.0,10.0,79,0.00,,,0.00,0.0,meteohub,2014-07-29 12:07:00,
2014-07-29 05:12:00,60.4,54.3,30.11,NNW,348,9.0,10.0,80,0.00,,,0.00,0.0,meteohub,2014-07-29 12:12:00,
2014-07-29 05:17:00,60.4,54.3,30.11,NNW,345,9.0,11.0,80,0.00,,,0.00,0.0,meteohub,2014-07-29 12:17:00,
2014-07-29 05:22:00,60.3,54.1,30.11,NNW,348,9.0,11.0,80,0.00,,,0.00,0.0,meteohub,2014-07-29 12:22:00,
2014-07-29 05:27:00,60.3,54.3,30.11,North,349,9.0,12.0,81,0.00,,,0.00,0.0,meteohub,2014-07-29 12:27:00,
2014-07-29 05:32:00,60.1,54.3,30.11,NNW,346,10.0,12.0,81,0.00,,,0.00,0.0,meteohub,2014-07-29 12:32:00,
2014-07-29 05:37:00,59.9,54.3,30.11,NNW,347,9.0,12.0,82,0.00,,,0.00,0.0,meteohub,2014-07-29 12:37:00,
2014-07-29 05:42:00,59.9,54.7,30.11,North,0,10.0,12.0,83,0.00,,,0.00,5.0,meteohub,2014-07-29 12:42:00,
2014-07-29 05:47:00,60.1,54.5,30.12,North,9,11.0,11.0,82,0.00,,,0.00,7.0,meteohub,2014-07-29 12:47:00,
2014-07-29 05:52:00,60.1,54.5,30.12,North,0,10.0,11.0,82,0.00,,,0.00,7.0,meteohub,2014-07-29 12:52:00,
2014-07-29 05:57:00,59.9,54.7,30.12,NNW,348,11.0,12.0,83,0.00,,,0.00,9.0,meteohub,2014-07-29 12:57:00,
2014-07-29 06:02:00,59.7,54.9,30.12,NNW,348,10.0,12.0,84,0.00,,,0.00,11.0,meteohub,2014-07-29 13:02:00,
2014-07-29 06:07:00,59.7,54.5,30.12,NNW,327,11.0,11.0,83,0.00,,,0.00,11.0,meteohub,2014-07-29 13:07:00,
2014-07-29 06:12:00,59.7,54.1,30.12,North,349,9.0,12.0,82,0.00,,,0.00,12.0,meteohub,2014-07-29 13:12:00,
2014-07-29 06:17:00,59.5,54.3,30.12,North,355,10.0,12.0,83,0.00,,,0.00,14.0,meteohub,2014-07-29 13:17:00,
2014-07-29 06:22:00,59.5,54.0,30.12,North,355,10.0,12.0,82,0.00,,,0.00,14.0,meteohub,2014-07-29 13:22:00,
2014-07-29 06:27:00,59.5,54.3,30.12,NNW,338,9.0,12.0,83,0.00,,,0.00,16.0,meteohub,2014-07-29 13:27:00,
2014-07-29 06:32:00,59.5,54.3,30.12,NNW,337,9.0,12.0,83,0.00,,,0.00,18.0,meteohub,2014-07-29 13:32:00,
2014-07-29 06:37:00,59.4,54.1,30.12,North,351,9.0,12.0,83,0.00,,,0.00,18.0,meteohub,2014-07-29 13:37:00,
2014-07-29 06:42:00,59.4,54.1,30.12,NNW,344,9.0,11.0,83,0.00,,,0.00,19.0,meteohub,2014-07-29 13:42:00,
2014-07-29 06:47:00,59.5,54.3,30.12,NNW,340,8.0,11.0,83,0.00,,,0.00,21.0,meteohub,2014-07-29 13:47:00,
2014-07-29 06:52:00,59.4,54.1,30.12,North,5,7.0,11.0,83,0.00,,,0.00,23.0,meteohub,2014-07-29 13:52:00,
2014-07-29 06:57:00,59.5,53.8,30.12,NNW,335,9.0,11.0,81,0.00,,,0.00,26.0,meteohub,2014-07-29 13:57:00,
2014-07-29 07:02:00,59.5,54.0,30.12,North,9,9.0,13.0,82,0.00,,,0.00,28.0,meteohub,2014-07-29 14:02:00,
2014-07-29 07:07:00,59.4,54.1,30.12,NNE,12,10.0,13.0,83,0.00,,,0.00,30.0,meteohub,2014-07-29 14:07:00,
2014-07-29 07:12:00,59.4,54.1,30.12,North,355,10.0,13.0,83,0.00,,,0.00,30.0,meteohub,2014-07-29 14:12:00,
2014-07-29 07:17:00,59.4,54.1,30.12,North,9,9.0,11.0,83,0.00,,,0.00,32.0,meteohub,2014-07-29 14:17:00,
2014-07-29 07:22:00,59.4,54.1,30.12,North,11,10.0,11.0,83,0.00,,,0.00,32.0,meteohub,2014-07-29 14:22:00,
2014-07-29 07:27:00,59.4,54.5,30.12,North,9,10.0,11.0,84,0.00,,,0.00,33.0,meteohub,2014-07-29 14:27:00,